Probability
77 100 100 100 100 100 100 100 100 100 100 100 100 100 100 100 100 100 100 100 100 100 100 100 97 97 100 100 100 100 100 100 100 100 100 100 100 100 100 100 100 100 100
81 100 100 100 100 100 100 100 100 100 100 100 100 100 100 100 100 100 100 100 100 100 100 100 100 100 100 100 100 100 100 97 97 94 97 97 100 100 100 100 100 100 100
84 100 100 100 100 100 100 100 100 100 100 100 100 100 100 100 100 100 100 100 100 100 100 100 97 97 97 97 100 100 100 100 97 94 94 84 97 100 100 100 100 100 100
94 100 100 100 100 100 100 100 100 100 100 100 100 100 100 100 100 100 100 100 100 100 97 97 94 87 87 94 94 90 90 90 90 87 71 77 90 97 100 100 100 100 100
90 100 100 100 100 100 100 100 100 100 100 100 100 100 100 100 100 100 100 100 100 100 97 90 81 74 71 74 77 77 84 87 90 68 58 71 87 97 100 100 100 100 100
87 100 100 100 100 100 100 100 100 100 100 100 100 100 100 100 100 100 100 100 100 97 94 81 74 68 58 52 55 65 65 71 55 39 39 65 87 97 94 100 100 97 100
87 100 100 100 100 100 100 100 100 100 100 100 100 100 100 100 100 100 100 100 100 97 87 71 61 52 42 39 45 52 58 55 23 13 29 52 90 97 94 94 100 100 97
84 100 100 100 100 100 100 100 100 100 100 100 100 100 100 100 100 100 100 100 97 90 81 71 65 48 39 35 39 52 58 52 32 13 23 39 90 97 90 94 97 97 100
87 100 100 100 100 100 100 100 100 100 100 100 100 100 100 100 100 100 100 100 90 87 77 58 52 42 35 32 39 48 52 48 10 6 19 23 84 94 94 97 97 97 97
77 100 100 100 100 100 100 100 100 100 100 100 100 100 100 100 100 100 100 100 90 87 74 71 65 61 48 48 48 58 55 42 10 3 3 35 84 94 97 97 97 97 97
74 87 94 97 100 100 100 100 100 100 100 100 100 100 100 100 100 100 97 90 90 87 81 77 71 65 55 52 55 65 48 10 0 0 3 58 90 97 97 97 97 97 94
61 58 87 90 94 94 94 100 100 100 100 100 100 100 84 58 61 90 97 97 90 87 81 81 74 68 48 23 13 32 13 3 0 3 23 77 94 94 90 90 90 87 84
45 35 58 65 71 68 71 84 74 74 74 68 77 74 39 16 23 48 58 94 84 77 58 52 58 42 26 10 6 3 3 3 3 3 29 87 94 87 90 84 77 77 74
52 39 39 35 35 32 55 65 58 52 48 42 35 45 13 10 10 13 16 42 52 35 13 13 10 16 6 6 6 3 0 0 0 6 26 77 81 81 74 71 65 61 58
58 52 45 39 35 32 42 39 42 26 29 13 19 29 10 6 6 10 16 23 19 10 6 6 6 6 6 6 3 3 0 0 6 6 19 61 68 65 71 58 48 48 52
65 61 68 55 45 48 48 39 39 32 26 10 16 39 19 13 10 13 10 10 6 6 6 6 6 6 6 3 3 3 0 0 3 3 6 23 42 52 52 45 42 39 32
68 68 71 74 68 71 61 58 58 58 52 32 23 32 29 13 13 13 10 10 6 3 6 6 6 6 0 0 0 0 0 0 0 0 0 0 6 35 35 29 26 26 23
65 74 77 87 90 87 74 68 71 71 55 45 42 29 32 26 13 13 10 3 3 3 6 0 3 0 0 0 0 0 0 0 0 0 0 0 0 0 3 19 23 19 16
65 68 84 84 90 90 84 65 65 65 58 55 45 39 42 32 23 13 6 6 6 6 3 3 0 0 0 0 0 0 0 0 0 0 0 0 0 0 0 0 3 3 3
61 74 81 84 94 84 77 68 58 55 39 29 29 26 29 26 23 10 6 3 3 3 0 0 0 0 0 0 0 0 0 0 0 0 0 0 0 0 0 0 0 0 0
45 55 84 87 87 87 81 77 65 42 29 23 16 16 19 16 13 6 6 3 3 3 0 0 0 0 0 0 0 0 0 0 0 0 0 0 0 0 0 0 0 0 0
42 58 71 81 87 87 81 58 45 32 19 19 19 13 3 3 6 3 0 0 0 0 0 0 0 0 0 0 0 0 0 0 0 0 0 0 0 0 0 0 0 0 0
65 61 71 77 74 74 58 39 29 23 13 10 10 3 3 6 6 3 0 0 0 0 0 0 0 0 0 0 0 0 0 0 0 0 0 0 0 0 0 0 0 0 0
48 48 48 52 48 52 42 35 35 29 13 10 3 0 0 0 0 0 0 0 0 0 0 0 0 0 0 0 0 0 0 0 0 0 0 0 0 0 0 0 0 0 0
29 35 32 39 32 32 26 26 26 13 10 3 0 0 0 0 0 0 0 0 0 0 0 0 0 0 0 0 0 0 0 0 0 0 0 0 0 0 0 0 0 0 0
23 26 32 29 23 19 19 19 13 10 3 0 0 0 0 0 0 0 0 0 0 0 0 0 0 0 0 0 0 0 0 0 0 0 0 0 0 0 0 0 0 0 0
Height
5905 5904 5904 5905 5905 5906 5906 5906 5907 5907 5907 5908 5908 5908 5908 5908 5908 5908 5908 5908 5908 5907 5907 5906 5906 5905 5905 5904 5904 5903 5903 5903 5903 5902 5902 5901 5901 5900 5900 5900 5899 5899 5899
5903 5903 5903 5903 5904 5904 5905 5905 5906 5906 5906 5907 5907 5907 5907 5907 5907 5907 5907 5906 5906 5906 5905 5904 5904 5903 5903 5903 5902 5902 5902 5901 5901 5901 5900 5900 5899 5899 5898 5898 5898 5897 5897
5901 5902 5902 5902 5903 5903 5904 5904 5905 5905 5905 5906 5906 5906 5906 5906 5906 5906 5906 5905 5905 5904 5904 5903 5903 5902 5902 5902 5901 5901 5900 5900 5899 5899 5898 5898 5897 5897 5896 5896 5896 5895 5895
5900 5901 5901 5902 5902 5903 5903 5903 5904 5904 5905 5905 5905 5905 5905 5906 5905 5905 5905 5904 5904 5903 5903 5902 5902 5901 5901 5900 5900 5899 5899 5898 5898 5897 5897 5896 5896 5895 5895 5894 5894 5894 5893
5900 5900 5900 5901 5901 5902 5902 5903 5903 5904 5904 5904 5904 5905 5905 5905 5905 5904 5904 5903 5903 5903 5902 5901 5901 5900 5899 5899 5898 5898 5897 5896 5896 5895 5895 5894 5894 5893 5893 5893 5892 5892 5891
5899 5899 5900 5900 5901 5902 5902 5903 5903 5903 5904 5904 5904 5904 5904 5904 5904 5903 5903 5903 5902 5902 5901 5901 5900 5899 5898 5897 5896 5896 5895 5895 5894 5894 5894 5893 5892 5892 5891 5891 5891 5890 5890
5898 5898 5899 5900 5900 5901 5902 5902 5902 5903 5903 5903 5903 5903 5903 5903 5903 5903 5902 5902 5901 5901 5900 5899 5898 5897 5896 5895 5895 5894 5894 5893 5893 5893 5892 5891 5891 5890 5890 5889 5889 5888 5888
5897 5898 5898 5899 5900 5901 5901 5902 5902 5902 5903 5903 5903 5903 5903 5902 5902 5902 5901 5901 5900 5900 5899 5898 5897 5896 5895 5893 5893 5892 5892 5892 5891 5891 5890 5889 5889 5888 5888 5887 5886 5886 5886
5896 5897 5898 5899 5900 5900 5901 5901 5902 5902 5902 5902 5902 5902 5902 5901 5901 5901 5900 5900 5899 5898 5897 5896 5895 5894 5892 5891 5890 5890 5890 5889 5889 5888 5887 5887 5887 5886 5885 5884 5884 5884 5883
5896 5897 5898 5899 5899 5900 5901 5901 5901 5901 5902 5902 5901 5901 5901 5901 5900 5900 5899 5898 5897 5896 5895 5894 5892 5891 5889 5888 5888 5887 5887 5887 5886 5886 5885 5884 5884 5883 5882 5882 5881 5881 5880
5896 5897 5897 5898 5899 5899 5900 5900 5900 5901 5901 5901 5900 5900 5900 5899 5899 5898 5898 5897 5895 5894 5893 5891 5890 5888 5886 5885 5885 5884 5884 5884 5884 5883 5882 5881 5880 5880 5879 5879 5878 5877 5877
5896 5896 5897 5898 5898 5899 5899 5899 5899 5900 5900 5900 5899 5899 5898 5898 5897 5896 5895 5894 5893 5891 5890 5888 5887 5885 5883 5882 5881 5881 5881 5880 5880 5879 5878 5877 5876 5876 5875 5875 5874 5873 5873
5895 5895 5896 5897 5898 5898 5898 5898 5898 5898 5898 5898 5898 5897 5896 5896 5895 5894 5893 5891 5890 5888 5887 5885 5883 5881 5880 5878 5877 5877 5877 5876 5876 5875 5874 5873 5872 5871 5870 5870 5869 5869 5868
5893 5894 5895 5896 5896 5897 5897 5897 5897 5897 5897 5896 5896 5896 5895 5894 5893 5891 5890 5889 5887 5885 5883 5881 5879 5877 5875 5874 5873 5872 5872 5872 5871 5870 5869 5868 5867 5866 5865 5864 5864 5863 5863
5891 5892 5893 5894 5895 5895 5895 5895 5895 5895 5895 5895 5894 5893 5892 5891 5890 5889 5887 5886 5884 5882 5880 5877 5875 5873 5871 5869 5868 5867 5867 5866 5866 5865 5864 5863 5862 5861 5860 5858 5858 5857 5857
5888 5889 5890 5891 5892 5893 5893 5893 5893 5893 5892 5892 5891 5891 5890 5889 5888 5886 5885 5883 5880 5878 5876 5874 5871 5869 5867 5865 5864 5863 5862 5861 5860 5859 5858 5857 5856 5855 5854 5853 5852 5851 5850
5886 5887 5888 5888 5889 5889 5890 5890 5890 5889 5889 5889 5888 5887 5887 5886 5884 5883 5881 5879 5877 5875 5873 5870 5868 5866 5864 5861 5859 5858 5857 5856 5855 5854 5853 5852 5851 5849 5848 5847 5845 5844 5843
5883 5884 5885 5885 5886 5886 5887 5886 5886 5886 5885 5884 5884 5883 5882 5881 5880 5879 5877 5875 5873 5871 5869 5867 5865 5863 5860 5858 5856 5854 5852 5850 5849 5848 5847 5846 5844 5843 5842 5840 5838 5837 5836
5878 5880 5881 5881 5881 5882 5882 5882 5882 5882 5881 5881 5879 5878 5877 5876 5875 5873 5872 5870 5868 5866 5864 5862 5860 5858 5856 5854 5852 5850 5847 5845 5844 5842 5840 5839 5837 5836 5834 5833 5831 5830 5828
5873 5874 5875 5875 5875 5876 5877 5877 5877 5876 5876 5876 5875 5873 5872 5871 5869 5868 5866 5864 5862 5861 5859 5857 5855 5853 5851 5849 5847 5845 5843 5840 5838 5836 5834 5832 5830 5828 5827 5825 5823 5822 5820
5868 5869 5869 5869 5870 5869 5870 5870 5870 5870 5869 5869 5869 5867 5866 5864 5863 5861 5860 5858 5856 5855 5852 5851 5849 5847 5846 5844 5842 5840 5838 5835 5833 5830 5828 5825 5823 5821 5819 5817 5815 5813 5810
5862 5863 5863 5863 5864 5864 5864 5863 5863 5863 5862 5862 5861 5860 5858 5857 5855 5854 5852 5851 5850 5848 5846 5845 5843 5841 5839 5838 5836 5834 5832 5830 5827 5824 5821 5819 5816 5813 5810 5808 5805 5803 5800
5857 5857 5858 5858 5859 5858 5857 5856 5855 5855 5854 5854 5853 5852 5851 5849 5847 5846 5845 5843 5842 5841 5839 5838 5836 5834 5833 5831 5829 5827 5825 5823 5820 5817 5813 5810 5807 5804 5801 5798 5795 5792 5788
5852 5852 5852 5853 5852 5851 5850 5848 5847 5847 5847 5845 5844 5843 5842 5841 5839 5838 5836 5835 5834 5832 5831 5829 5828 5826 5825 5823 5821 5818 5816 5814 5811 5808 5805 5801 5798 5794 5790 5786 5782 5779 5775
5845 5845 5845 5845 5844 5844 5843 5841 5840 5840 5839 5837 5836 5834 5834 5833 5831 5829 5828 5827 5825 5824 5822 5821 5819 5818 5816 5814 5811 5809 5806 5804 5801 5798 5795 5791 5787 5782 5778 5773 5769 5765 5761
5838 5839 5838 5836 5836 5836 5835 5834 5833 5832 5830 5829 5828 5826 5825 5824 5822 5820 5819 5818 5817 5815 5814 5812 5810 5808 5806 5803 5801 5798 5795 5792 5789 5786 5783 5779 5775 5769 5764 5758 5754 5749 5745
Wind_Speed
10 9 8 8 9 10 10 10 10 11 11 11 11 11 11 12 12 12 12 13 13 13 13 13 13 13 13 13 12 12 12 12 11 11 11 10 10 11 10 10 9 9 9
11 9 9 9 9 9 9 10 10 10 11 11 11 11 11 11 12 12 12 13 13 13 13 13 13 13 13 13 13 13 13 12 12 12 12 12 11 11 11 11 10 10 10
11 10 9 9 9 8 9 9 9 9 10 10 10 10 10 10 10 11 11 12 12 12 12 13 13 13 13 13 13 13 13 13 12 12 12 12 12 12 12 12 12 11 11
10 9 8 8 8 8 8 7 8 8 8 8 8 8 8 8 8 9 10 10 11 11 11 12 12 13 13 13 13 13 13 12 12 12 12 12 12 12 12 12 12 12 12
8 8 7 7 6 6 6 6 6 6 6 5 5 5 5 6 6 7 8 9 9 10 10 11 12 12 13 13 13 12 12 12 12 12 12 12 12 12 12 12 13 13 13
7 6 6 6 5 5 5 5 5 5 4 4 4 4 4 4 5 6 8 8 9 9 9 10 11 12 12 12 12 12 12 12 12 12 12 12 12 12 12 13 13 13 13
6 5 6 5 5 5 5 4 4 4 4 3 3 3 3 4 5 6 7 8 8 9 9 10 11 11 12 12 12 12 12 12 12 12 12 12 13 12 12 13 13 13 13
5 5 5 5 4 4 4 3 3 3 2 2 1 2 2 3 4 5 6 7 8 9 10 10 11 11 12 13 13 13 13 12 12 12 12 13 12 13 13 13 13 13 13
5 4 4 4 3 3 2 2 1 1 1 0 1 1 2 3 4 5 6 7 8 8 9 11 11 12 13 13 14 14 13 12 12 13 13 12 12 13 13 13 13 13 13
4 4 4 4 3 2 2 1 1 2 2 2 2 2 2 3 4 5 6 7 8 9 10 11 12 13 14 14 15 15 14 13 13 14 14 14 14 15 14 14 14 14 15
5 4 4 4 3 2 2 1 2 2 2 2 2 2 2 3 4 5 6 7 8 9 11 12 13 14 15 16 16 16 16 15 15 15 15 16 16 16 15 15 16 16 16
7 6 5 4 3 2 2 1 1 2 2 2 2 1 2 2 3 4 6 8 9 11 12 13 14 15 17 18 18 17 17 16 16 17 17 17 17 17 18 18 18 18 19
8 7 5 4 4 2 1 1 1 1 2 1 1 1 2 3 4 5 7 9 10 11 13 14 16 17 18 19 19 19 18 18 18 19 19 20 19 20 20 20 20 21 21
9 8 6 5 4 3 2 1 0 1 1 1 1 2 3 4 5 6 7 9 11 12 13 14 15 17 18 19 19 20 20 20 20 21 21 21 21 21 21 22 22 23 24
9 9 8 6 5 4 3 2 2 2 3 2 2 3 4 5 6 7 8 10 11 12 13 15 15 17 18 19 20 20 20 19 20 21 22 23 23 23 23 23 24 25 26
11 10 9 7 7 6 5 5 5 5 5 4 5 5 6 6 8 8 10 11 13 14 15 16 16 16 17 18 18 19 19 20 20 21 22 23 23 24 24 24 26 27 27
14 12 11 10 8 8 8 8 7 7 7 7 7 7 8 9 10 10 12 14 14 15 16 17 17 17 17 17 17 18 19 19 19 21 22 22 23 25 25 26 27 27 28
17 14 14 12 11 10 10 10 9 9 9 10 10 9 10 11 13 13 15 15 16 16 17 17 16 17 18 17 17 18 19 19 19 21 21 22 24 25 26 27 28 29 30
18 18 17 15 14 13 13 12 12 12 13 13 14 13 14 15 16 17 18 18 18 19 19 19 18 19 19 19 19 19 20 21 21 22 22 23 25 26 28 29 30 31 33
20 19 19 19 18 16 16 16 16 17 17 17 18 18 18 19 19 20 21 22 22 21 21 21 22 22 21 21 20 20 20 21 22 24 25 27 28 28 30 31 33 35 36
23 22 21 21 19 19 20 21 21 21 21 21 22 23 23 23 23 24 24 24 24 25 24 24 24 24 23 22 22 23 23 23 25 26 28 29 30 31 33 35 37 38 39
24 24 23 22 21 22 23 25 25 25 25 26 26 27 27 27 26 26 27 27 27 28 28 27 27 26 25 25 25 26 26 27 28 29 30 32 33 35 36 38 40 42 44
27 26 24 24 25 26 27 29 29 29 29 30 30 30 30 30 29 30 30 30 30 30 30 30 29 28 28 28 28 28 29 30 31 33 34 36 38 39 41 43 45 47 49
29 29 28 29 30 31 31 31 32 32 32 34 34 33 33 33 33 33 33 33 32 33 33 33 32 32 31 31 31 32 34 35 36 37 39 41 43 44 46 48 50 52 54
32 33 33 34 34 34 35 35 36 35 36 36 36 35 35 35 36 36 36 34 35 35 34 34 34 35 35 35 36 37 39 39 40 41 43 45 47 50 52 54 55 57 59
35 36 37 36 36 36 37 38 38 37 37 37 36 36 37 37 38 37 36 36 37 37 36 36 38 37 39 40 41 42 43 44 45 46 48 49 52 54 56 58 59 61 63
Wind_Direction
286 286 281 271 259 254 252 255 258 261 265 267 267 269 273 276 278 281 284 286 286 286 284 282 281 280 278 278 278 278 278 276 273 272 271 269 266 265 266 266 267 270 272
286 282 276 267 260 256 256 256 258 262 264 266 266 269 274 278 280 282 285 286 287 288 286 284 283 282 281 281 281 281 281 281 279 276 274 271 270 270 271 271 271 272 274
283 276 270 260 255 254 254 255 257 259 260 264 267 271 275 279 282 285 287 288 289 290 290 288 287 287 286 286 285 284 284 284 283 281 279 277 275 274 274 275 274 273 273
274 267 264 255 250 248 248 250 252 253 255 260 267 272 277 280 284 288 291 292 293 294 294 293 293 292 291 289 288 288 287 287 285 284 283 282 279 277 275 275 275 275 274
265 258 255 249 243 241 240 243 243 241 243 252 260 268 276 284 291 295 297 297 298 299 300 299 297 296 295 294 293 292 292 289 287 286 286 284 280 279 277 276 275 274 273
261 252 246 239 236 236 234 232 227 228 233 238 245 256 273 286 293 297 299 300 302 302 302 301 299 298 297 296 294 293 293 291 289 288 287 285 280 278 279 276 275 274 272
259 251 240 232 232 233 229 225 225 226 229 235 241 255 277 290 297 301 302 302 303 304 303 301 299 298 295 293 292 291 291 291 290 289 287 285 279 275 277 276 275 275 273
258 247 239 232 233 231 225 222 220 221 224 235 257 276 295 303 306 309 310 310 309 308 306 304 302 298 295 293 292 291 291 293 292 290 287 286 280 275 272 274 274 274 273
255 246 236 228 228 222 214 196 163 140 122 81 10 344 335 334 330 326 323 320 318 316 313 310 306 301 298 295 294 293 293 292 290 288 286 285 284 277 273 273 274 273 272
246 234 233 223 213 192 168 144 110 88 69 52 32 13 1 351 345 341 334 326 323 322 318 313 308 303 299 296 295 295 294 292 290 288 286 285 282 278 274 273 273 273 273
233 221 215 212 206 187 160 131 99 69 54 40 28 20 5 353 348 343 337 331 325 322 321 318 313 306 300 296 295 295 295 294 292 288 285 281 280 279 277 275 275 274 272
226 218 214 217 212 193 161 122 73 63 54 39 32 29 5 350 343 337 334 329 323 320 318 315 312 309 303 297 295 294 294 292 289 287 284 281 279 277 276 274 274 273 271
224 218 220 224 223 209 183 130 88 62 46 33 28 8 344 332 333 333 333 332 327 325 321 314 310 306 303 299 294 291 290 292 290 286 284 283 280 277 276 273 273 273 273
226 223 225 236 236 231 221 189 81 11 12 351 328 330 329 332 337 339 337 334 331 328 326 321 314 308 304 300 295 291 289 289 290 286 283 281 279 278 278 275 273 273 273
229 229 228 241 246 240 245 264 300 314 313 317 322 316 310 312 325 328 332 333 331 328 328 328 321 314 307 302 297 293 290 288 286 285 282 279 277 276 276 277 276 274 273
231 228 233 241 249 255 263 273 286 292 304 311 310 310 308 307 315 319 320 327 329 328 327 327 323 318 313 307 301 295 290 286 282 281 282 281 278 276 275 276 277 276 273
236 231 234 238 245 259 266 273 280 287 294 296 300 305 305 304 308 314 318 321 325 326 325 322 320 318 315 307 302 299 292 287 283 283 281 281 278 276 276 276 276 276 275
248 241 239 240 245 255 265 273 278 282 287 291 293 297 300 302 306 310 315 314 317 319 319 318 318 317 316 310 303 299 296 292 289 286 284 282 280 278 277 276 275 275 275
255 247 246 246 247 252 261 269 277 281 284 285 287 289 292 294 299 303 307 310 311 316 318 317 314 315 314 310 304 299 296 292 291 289 287 283 280 278 277 275 275 276 276
256 253 251 250 250 253 262 269 275 280 283 285 287 288 289 291 294 297 301 304 304 309 312 314 311 310 308 306 301 297 296 294 291 289 287 285 283 281 279 275 275 275 276
253 257 256 259 262 262 268 273 275 278 282 284 286 288 288 287 289 292 296 298 299 303 305 307 308 305 302 301 297 294 292 290 288 287 286 286 284 283 281 278 277 276 276
258 262 263 262 265 267 269 274 274 275 279 282 284 285 285 285 286 287 292 294 296 299 300 301 302 300 299 297 294 292 291 290 287 285 284 284 285 283 281 280 279 278 277
260 264 265 263 264 265 269 272 271 274 277 280 280 281 282 284 284 286 290 292 292 294 295 295 296 298 296 294 293 292 290 289 287 286 285 284 284 283 282 281 280 279 279
262 263 263 267 268 265 267 270 273 274 277 278 279 277 280 282 281 283 285 287 288 292 292 292 294 296 294 293 291 291 290 288 286 285 285 284 283 282 282 282 282 281 280
265 266 267 268 269 269 270 273 275 273 277 278 278 278 279 281 281 283 282 284 288 291 290 290 293 294 294 293 291 291 289 287 286 285 284 284 283 283 282 283 282 281 281
265 267 268 269 271 270 270 274 275 274 277 278 280 281 279 281 283 284 284 288 289 289 289 289 293 293 293 292 291 290 289 287 287 286 285 284 284 284 284 283 283 282 282